THY5054 LTFM-OEMA

Flight info

Callsign THY5054
Flight time 2h 48m
Altitude 37000
Route RATVU1G/17R RATVU UT35 AYT UM855 TOMBI M855 RASDA A16 CVO L315 HGD M872 BOVET
Aircraft B77W/H-SDE1E2E3FGHIJ2J3J4J5M1RWXY/LB1D1

Departure

Time 2026-05-08 20:22
Airport İstanbul Airport (LTFM)

Arrival

Time 2026-05-08 23:10
Airport Prince Mohammad Bin Abdulaziz Airport (OEMA)
Time Latitude Longitude Altitude Speed Heading
2026-05-08 19:43 41.26070 28.73590 339 ft 0 kts 110°
2026-05-08 19:59 41.26074 28.73569 333 ft 2 kts 102°
2026-05-08 20:00 41.26077 28.73548 339 ft 2 kts 91°
2026-05-08 20:00 41.26075 28.73526 333 ft 2 kts 76°
2026-05-08 20:00 41.26070 28.73506 335 ft 2 kts 58°
2026-05-08 20:00 41.26060 28.73488 333 ft 2 kts 42°
2026-05-08 20:01 41.26047 28.73475 333 ft 2 kts 30°
2026-05-08 20:01 41.26033 28.73466 333 ft 2 kts 20°
2026-05-08 20:01 41.26027 28.73463 333 ft 0 kts 18°
2026-05-08 20:04 41.26028 28.73463 333 ft 0 kts 18°
2026-05-08 20:04 41.26033 28.73466 333 ft 1 kts 18°
2026-05-08 20:04 41.26045 28.73470 333 ft 2 kts 17°
2026-05-08 20:04 41.26060 28.73476 333 ft 3 kts 17°
2026-05-08 20:05 41.26079 28.73484 333 ft 5 kts 17°
2026-05-08 20:05 41.26155 28.73508 336 ft 12 kts
2026-05-08 20:05 41.26217 28.73456 336 ft 11 kts 283°
2026-05-08 20:05 41.26218 28.73352 336 ft 11 kts 269°
2026-05-08 20:06 41.26225 28.73253 334 ft 8 kts 298°
2026-05-08 20:06 41.26283 28.73233 334 ft 9 kts
2026-05-08 20:06 41.26348 28.73234 338 ft 9 kts
2026-05-08 20:06 41.26420 28.73232 334 ft 13 kts 358°
2026-05-08 20:07 41.26533 28.73229 334 ft 18 kts 359°
2026-05-08 20:07 41.26658 28.73226 334 ft 18 kts 359°
2026-05-08 20:07 41.26705 28.73224 334 ft 0 kts 359°
2026-05-08 20:07 41.26709 28.73224 335 ft 1 kts 359°
2026-05-08 20:08 41.26717 28.73224 336 ft 1 kts 359°
2026-05-08 20:08 41.26727 28.73224 339 ft 2 kts 359°
2026-05-08 20:08 41.26754 28.73223 337 ft 10 kts 359°
2026-05-08 20:08 41.26835 28.73217 335 ft 12 kts 344°
2026-05-08 20:09 41.26864 28.73121 336 ft 12 kts 269°
2026-05-08 20:09 41.26864 28.73055 338 ft 0 kts 269°
2026-05-08 20:09 41.26863 28.73047 339 ft 2 kts 269°
2026-05-08 20:09 41.26871 28.73019 336 ft 0 kts 304°
2026-05-08 20:10 41.26874 28.73013 333 ft 2 kts 308°
2026-05-08 20:10 41.26913 28.72993 334 ft 10 kts 349°
2026-05-08 20:10 41.26918 28.72993 334 ft 1 kts 355°
2026-05-08 20:10 41.26944 28.73012 336 ft 10 kts 48°
2026-05-08 20:11 41.27016 28.73101 337 ft 18 kts
2026-05-08 20:11 41.27154 28.73098 334 ft 20 kts 359°
2026-05-08 20:11 41.27295 28.73095 336 ft 20 kts 359°
2026-05-08 20:11 41.27423 28.73092 337 ft 0 kts 359°
2026-05-08 20:12 41.27425 28.73092 337 ft 1 kts 359°
2026-05-08 20:12 41.27430 28.73092 337 ft 1 kts 359°
2026-05-08 20:12 41.27439 28.73092 334 ft 1 kts 359°
2026-05-08 20:12 41.27443 28.73092 334 ft 0 kts 359°
2026-05-08 20:13 41.27446 28.73092 335 ft 1 kts 359°
2026-05-08 20:13 41.27470 28.73091 338 ft 9 kts 359°
2026-05-08 20:13 41.27537 28.73089 337 ft 10 kts 359°
2026-05-08 20:13 41.27587 28.73058 334 ft 6 kts 295°
2026-05-08 20:14 41.27607 28.73004 334 ft 9 kts 308°
2026-05-08 20:14 41.27724 28.72969 334 ft 22 kts 359°
2026-05-08 20:14 41.27877 28.72965 336 ft 22 kts 359°
2026-05-08 20:14 41.28031 28.72962 336 ft 22 kts 359°
2026-05-08 20:15 41.28184 28.72959 334 ft 22 kts 359°
2026-05-08 20:15 41.28338 28.72956 338 ft 22 kts 359°
2026-05-08 20:15 41.28491 28.72952 336 ft 22 kts 359°
2026-05-08 20:15 41.28645 28.72948 334 ft 22 kts 359°
2026-05-08 20:16 41.28798 28.72944 335 ft 22 kts 359°
2026-05-08 20:16 41.28951 28.72940 338 ft 22 kts 359°
2026-05-08 20:16 41.29105 28.72936 336 ft 22 kts 359°
2026-05-08 20:16 41.29257 28.72933 335 ft 22 kts 359°
2026-05-08 20:17 41.29410 28.72930 336 ft 21 kts 359°
2026-05-08 20:17 41.29462 28.72927 335 ft 6 kts 357°
2026-05-08 20:17 41.29487 28.72890 336 ft 6 kts 273°
2026-05-08 20:17 41.29486 28.72886 336 ft 0 kts 270°
2026-05-08 20:18 41.29486 28.72880 334 ft 1 kts 270°
2026-05-08 20:18 41.29487 28.72871 335 ft 0 kts 271°
2026-05-08 20:19 41.29487 28.72870 335 ft 1 kts 271°
2026-05-08 20:19 41.29488 28.72809 337 ft 14 kts 271°
2026-05-08 20:19 41.29489 28.72621 339 ft 22 kts 269°
2026-05-08 20:20 41.29486 28.72475 339 ft 10 kts 265°
2026-05-08 20:20 41.29451 28.72448 337 ft 5 kts 179°
2026-05-08 20:20 41.29450 28.72448 338 ft 0 kts 179°
2026-05-08 20:21 41.29352 28.72450 335 ft 39 kts 179°
2026-05-08 20:21 41.28802 28.72468 339 ft 118 kts 178°
2026-05-08 20:21 41.27777 28.72532 352 ft 177 kts 174°
2026-05-08 20:21 41.26520 28.72579 879 ft 187 kts 179°
2026-05-08 20:22 41.25187 28.72604 1636 ft 192 kts 179°
2026-05-08 20:22 41.23896 28.72663 2596 ft 183 kts 178°
2026-05-08 20:22 41.22621 28.72756 3310 ft 187 kts 178°
2026-05-08 20:22 41.21304 28.72903 3913 ft 193 kts 177°
2026-05-08 20:23 41.19870 28.72985 4170 ft 220 kts 182°
2026-05-08 20:23 41.18330 28.72498 4560 ft 236 kts 205°
2026-05-08 20:23 41.16849 28.71483 5192 ft 243 kts 212°
2026-05-08 20:23 41.15537 28.70024 5928 ft 250 kts 222°
2026-05-08 20:24 41.14285 28.68419 6874 ft 251 kts 222°
2026-05-08 20:24 41.13008 28.66831 7667 ft 252 kts 217°
2026-05-08 20:24 41.11394 28.65903 8254 ft 262 kts 189°
2026-05-08 20:24 41.09556 28.65966 9112 ft 267 kts 176°
2026-05-08 20:25 41.07704 28.66297 9939 ft 271 kts 175°
2026-05-08 20:25 41.05806 28.66645 10535 ft 283 kts 175°
2026-05-08 20:25 41.03757 28.67016 10743 ft 311 kts 175°
2026-05-08 20:25 41.01520 28.67419 10989 ft 337 kts 175°
2026-05-08 20:26 40.99148 28.67847 11598 ft 350 kts 175°
2026-05-08 20:26 40.96693 28.68287 12373 ft 360 kts 175°
2026-05-08 20:26 40.94186 28.68733 13331 ft 367 kts 175°
2026-05-08 20:26 40.91630 28.69183 14242 ft 374 kts 175°
2026-05-08 20:27 40.89033 28.69621 15107 ft 379 kts 176°
2026-05-08 20:27 40.86433 28.70032 16004 ft 384 kts 176°
2026-05-08 20:27 40.83764 28.70445 16890 ft 388 kts 176°
2026-05-08 20:27 40.81066 28.70864 17840 ft 392 kts 176°
2026-05-08 20:28 40.78307 28.71295 18741 ft 396 kts 176°
2026-05-08 20:28 40.75593 28.71722 19510 ft 401 kts 176°
2026-05-08 20:28 40.72803 28.72161 20267 ft 406 kts 176°
2026-05-08 20:28 40.69980 28.72605 21024 ft 411 kts 176°
2026-05-08 20:29 40.67126 28.73053 21769 ft 416 kts 176°
2026-05-08 20:29 40.64219 28.73509 22417 ft 424 kts 176°
2026-05-08 20:29 40.61269 28.73972 23117 ft 430 kts 176°
2026-05-08 20:29 40.58286 28.74440 23828 ft 434 kts 176°
2026-05-08 20:30 40.55310 28.75134 24336 ft 441 kts 165°
2026-05-08 20:30 40.52528 28.76969 24814 ft 456 kts 146°
2026-05-08 20:30 40.50145 28.79747 25382 ft 460 kts 140°
2026-05-08 20:30 40.47783 28.82625 25893 ft 466 kts 141°
2026-05-08 20:31 40.45374 28.85504 26451 ft 470 kts 142°
2026-05-08 20:31 40.42932 28.88380 26988 ft 475 kts 142°
2026-05-08 20:31 40.40453 28.91275 27481 ft 480 kts 143°
2026-05-08 20:31 40.37943 28.94196 28008 ft 484 kts 143°
2026-05-08 20:32 40.35410 28.97141 28482 ft 489 kts 143°
2026-05-08 20:32 40.32842 29.00114 28843 ft 494 kts 144°
2026-05-08 20:32 40.30035 29.02661 29199 ft 489 kts 160°
2026-05-08 20:32 40.26845 29.04008 29719 ft 478 kts 174°
2026-05-08 20:33 40.23587 29.04930 30269 ft 481 kts 172°
2026-05-08 20:33 40.20337 29.06043 30648 ft 486 kts 168°
2026-05-08 20:33 40.17239 29.07940 31049 ft 502 kts 151°
2026-05-08 20:33 40.14555 29.10894 31501 ft 506 kts 143°
2026-05-08 20:34 40.11948 29.13989 31924 ft 507 kts 143°
2026-05-08 20:34 40.09312 29.17051 32418 ft 506 kts 144°
2026-05-08 20:34 40.04013 29.23026 33526 ft 501 kts 145°
2026-05-08 20:35 40.01356 29.25977 33980 ft 501 kts 145°
2026-05-08 20:35 39.98693 29.28927 34302 ft 504 kts 144°
2026-05-08 20:35 39.96026 29.31885 34693 ft 503 kts 144°
2026-05-08 20:35 39.93372 29.34834 35193 ft 499 kts 144°
2026-05-08 20:36 39.90712 29.37692 35688 ft 492 kts 150°
2026-05-08 20:36 39.87769 29.39839 36059 ft 480 kts 163°
2026-05-08 20:36 39.84681 29.41441 36435 ft 477 kts 165°
2026-05-08 20:36 39.81579 29.42985 36793 ft 477 kts 164°
2026-05-08 20:37 39.78497 29.44559 37154 ft 476 kts 163°
2026-05-08 20:37 39.72321 29.47875 37153 ft 481 kts 162°
2026-05-08 20:38 39.66192 29.51256 37142 ft 476 kts 162°
2026-05-08 20:38 39.60077 29.54503 37137 ft 474 kts 164°
2026-05-08 20:39 39.53909 29.57556 37161 ft 475 kts 165°
2026-05-08 20:39 39.47729 29.60597 37168 ft 476 kts 165°
2026-05-08 20:40 39.41526 29.63676 37157 ft 478 kts 164°
2026-05-08 20:40 39.35299 29.66777 37170 ft 480 kts 164°
2026-05-08 20:41 39.29093 29.69864 37174 ft 482 kts 164°
2026-05-08 20:41 39.22832 29.72970 37177 ft 482 kts 164°
2026-05-08 20:42 39.16565 29.76072 37173 ft 483 kts 165°
2026-05-08 20:42 39.10284 29.79175 37172 ft 483 kts 165°
2026-05-08 20:43 39.04009 29.82270 37185 ft 483 kts 165°
2026-05-08 20:43 38.97731 29.85360 37178 ft 483 kts 165°
2026-05-08 20:44 38.91446 29.88447 37188 ft 484 kts 165°
2026-05-08 20:44 38.85142 29.91509 37192 ft 485 kts 165°
2026-05-08 20:45 38.78807 29.94510 37199 ft 486 kts 165°
2026-05-08 20:45 38.72448 29.97515 37192 ft 488 kts 165°
2026-05-08 20:46 38.66080 30.00531 37191 ft 488 kts 165°
2026-05-08 20:46 38.59714 30.03543 37185 ft 488 kts 165°
2026-05-08 20:47 38.53351 30.06548 37183 ft 487 kts 165°
2026-05-08 20:47 38.47010 30.09538 37187 ft 486 kts 166°
2026-05-08 20:48 38.41739 30.12017 37186 ft 486 kts 165°
2026-05-08 20:48 38.34318 30.15503 37197 ft 486 kts 165°
2026-05-08 20:49 38.27944 30.18423 37181 ft 487 kts 166°
2026-05-08 20:49 38.22633 30.20832 37203 ft 489 kts 166°
2026-05-08 20:50 38.16222 30.23782 37200 ft 490 kts 166°
2026-05-08 20:50 38.08757 30.27219 37199 ft 492 kts 166°
2026-05-08 20:51 38.03364 30.29691 37196 ft 492 kts 166°
2026-05-08 20:51 37.96911 30.32632 37203 ft 493 kts 166°
2026-05-08 20:52 37.90454 30.35548 37218 ft 492 kts 166°
2026-05-08 20:52 37.84003 30.38458 37210 ft 492 kts 166°
2026-05-08 20:53 37.77547 30.41367 37208 ft 493 kts 166°
2026-05-08 20:53 37.71079 30.44277 37206 ft 494 kts 166°
2026-05-08 20:54 37.64603 30.47188 37205 ft 495 kts 166°
2026-05-08 20:54 37.58155 30.50078 37171 ft 495 kts 166°
2026-05-08 20:55 37.51665 30.52983 37180 ft 496 kts 166°
2026-05-08 20:55 37.45159 30.55891 37183 ft 496 kts 166°
2026-05-08 20:56 37.38638 30.58798 37183 ft 497 kts 166°
2026-05-08 20:56 37.32110 30.61703 37157 ft 498 kts 166°
2026-05-08 20:57 37.25570 30.64609 37155 ft 499 kts 166°
2026-05-08 20:57 37.19028 30.67511 37140 ft 499 kts 166°
2026-05-08 20:58 37.12483 30.70409 37131 ft 498 kts 166°
2026-05-08 20:58 37.05950 30.73296 37124 ft 497 kts 166°
2026-05-08 20:59 36.99437 30.76170 37130 ft 496 kts 166°
2026-05-08 20:59 36.92875 30.78696 37131 ft 489 kts 174°
2026-05-08 21:00 36.86189 30.79727 37107 ft 480 kts 185°
2026-05-08 21:00 36.79520 30.79900 37124 ft 480 kts 185°
2026-05-08 21:01 36.72844 30.80089 37130 ft 481 kts 185°
2026-05-08 21:01 36.66151 30.80320 37121 ft 482 kts 184°
2026-05-08 21:02 36.59451 30.80563 37120 ft 482 kts 184°
2026-05-08 21:02 36.52740 30.80804 37109 ft 482 kts 184°
2026-05-08 21:03 36.46031 30.81042 37118 ft 483 kts 184°
2026-05-08 21:03 36.39315 30.81278 37109 ft 483 kts 185°
2026-05-08 21:04 36.32606 30.81493 37110 ft 482 kts 185°
2026-05-08 21:04 36.25891 30.81704 37120 ft 482 kts 185°
2026-05-08 21:05 36.19188 30.81918 37113 ft 482 kts 185°
2026-05-08 21:05 36.12488 30.82132 37112 ft 482 kts 185°
2026-05-08 21:06 36.05786 30.82346 37115 ft 482 kts 185°
2026-05-08 21:06 35.99075 30.82649 37106 ft 483 kts 184°
2026-05-08 21:07 35.92359 30.83094 37108 ft 484 kts 183°
2026-05-08 21:07 35.85681 30.83531 37123 ft 484 kts 184°
2026-05-08 21:08 35.78946 30.83948 37101 ft 485 kts 184°
2026-05-08 21:08 35.72165 30.84361 37113 ft 485 kts 184°
2026-05-08 21:09 35.65431 30.84772 37121 ft 485 kts 184°
2026-05-08 21:09 35.58686 30.85151 37123 ft 485 kts 185°
2026-05-08 21:10 35.51949 30.85371 37113 ft 484 kts 185°
2026-05-08 21:10 35.45218 30.85570 37125 ft 484 kts 185°
2026-05-08 21:11 35.38531 30.85791 37123 ft 484 kts 185°
2026-05-08 21:11 35.31798 30.86022 37130 ft 484 kts 185°
2026-05-08 21:12 35.25074 30.86253 37129 ft 483 kts 185°
2026-05-08 21:12 35.18351 30.86481 37127 ft 483 kts 185°
2026-05-08 21:13 35.11640 30.86702 37118 ft 482 kts 185°
2026-05-08 21:13 35.04935 30.86916 37131 ft 482 kts 186°
2026-05-08 21:14 34.98227 30.87131 37127 ft 482 kts 185°
2026-05-08 21:14 34.91523 30.87346 37109 ft 482 kts 186°
2026-05-08 21:15 34.84815 30.87561 37122 ft 482 kts 186°
2026-05-08 21:15 34.78097 30.87775 37133 ft 483 kts 186°
2026-05-08 21:16 34.71365 30.87990 37132 ft 484 kts 186°
2026-05-08 21:16 34.64624 30.88207 37129 ft 485 kts 186°
2026-05-08 21:17 34.57867 30.88458 37135 ft 487 kts 185°
2026-05-08 21:17 34.51089 30.88818 37134 ft 488 kts 185°
2026-05-08 21:18 34.44303 30.89184 37119 ft 488 kts 185°
2026-05-08 21:18 34.37565 30.89529 37136 ft 488 kts 185°
2026-05-08 21:19 34.30777 30.89872 37133 ft 488 kts 185°
2026-05-08 21:19 34.23987 30.90216 37134 ft 488 kts 185°
2026-05-08 21:20 34.17197 30.90585 37135 ft 488 kts 184°
2026-05-08 21:20 34.10408 30.90966 37132 ft 488 kts 184°
2026-05-08 21:21 34.03622 30.91342 37132 ft 488 kts 184°
2026-05-08 21:21 33.96839 30.91715 37128 ft 487 kts 184°
2026-05-08 21:22 33.90068 30.92036 37137 ft 487 kts 185°
2026-05-08 21:22 33.83297 30.92274 37136 ft 487 kts 185°
2026-05-08 21:23 33.76521 30.92512 37123 ft 487 kts 185°
2026-05-08 21:23 33.69744 30.92763 37136 ft 487 kts 185°
2026-05-08 21:24 33.62970 30.93019 37145 ft 487 kts 185°
2026-05-08 21:24 33.56186 30.93274 37138 ft 488 kts 185°
2026-05-08 21:25 33.49410 30.93529 37139 ft 487 kts 185°
2026-05-08 21:25 33.42630 30.93783 37148 ft 487 kts 185°
2026-05-08 21:26 33.35849 30.94037 37144 ft 487 kts 185°
2026-05-08 21:26 33.29072 30.94290 37130 ft 487 kts 185°
2026-05-08 21:27 33.22300 30.94542 37141 ft 487 kts 185°
2026-05-08 21:27 33.15526 30.94794 37139 ft 487 kts 185°
2026-05-08 21:28 33.08750 30.95099 37114 ft 489 kts 182°
2026-05-08 21:28 33.01961 30.95835 37141 ft 490 kts 180°
2026-05-08 21:29 32.95181 30.96634 37135 ft 490 kts 180°
2026-05-08 21:29 32.88403 30.97413 37143 ft 489 kts 180°
2026-05-08 21:30 32.81629 30.98171 37131 ft 488 kts 180°
2026-05-08 21:30 32.74865 30.98921 37141 ft 488 kts 180°
2026-05-08 21:31 32.68107 30.99670 37140 ft 488 kts 180°
2026-05-08 21:31 32.61344 31.00420 37122 ft 488 kts 180°
2026-05-08 21:32 32.54595 31.01167 37136 ft 487 kts 180°
2026-05-08 21:32 32.47848 31.01914 37140 ft 487 kts 180°
2026-05-08 21:33 32.42239 31.02533 37141 ft 487 kts 180°
2026-05-08 21:33 32.34399 31.03397 37132 ft 486 kts 180°
2026-05-08 21:34 32.27664 31.04138 37137 ft 486 kts 180°
2026-05-08 21:34 32.20928 31.04878 37137 ft 486 kts 180°
2026-05-08 21:35 32.14191 31.05618 37154 ft 486 kts 180°
2026-05-08 21:35 32.07458 31.06356 37149 ft 486 kts 180°
2026-05-08 21:36 32.01924 31.06961 37137 ft 486 kts 180°
2026-05-08 21:36 31.95195 31.07697 37139 ft 486 kts 180°
2026-05-08 21:37 31.88512 31.08427 37147 ft 486 kts 180°
2026-05-08 21:37 31.81780 31.09161 37142 ft 486 kts 180°
2026-05-08 21:38 31.75046 31.09895 37140 ft 486 kts 180°
2026-05-08 21:38 31.68318 31.10626 37141 ft 486 kts 180°
2026-05-08 21:39 31.61589 31.11358 37124 ft 485 kts 180°
2026-05-08 21:39 31.54867 31.12087 37131 ft 485 kts 180°
2026-05-08 21:40 31.48157 31.13106 37140 ft 487 kts 176°
2026-05-08 21:40 31.41460 31.14384 37132 ft 488 kts 176°
2026-05-08 21:41 31.31418 31.16259 37133 ft 487 kts 176°
2026-05-08 21:41 31.24721 31.17485 37129 ft 487 kts 176°
2026-05-08 21:42 31.18031 31.18726 37131 ft 487 kts 176°
2026-05-08 21:42 31.11345 31.19980 37115 ft 487 kts 176°
2026-05-08 21:43 31.04660 31.21232 37123 ft 486 kts 176°
2026-05-08 21:43 30.97977 31.22479 37122 ft 486 kts 176°
2026-05-08 21:44 30.91299 31.23722 37124 ft 486 kts 176°
2026-05-08 21:44 30.84620 31.24963 37105 ft 486 kts 176°
2026-05-08 21:45 30.77939 31.26203 37122 ft 486 kts 176°
2026-05-08 21:45 30.71258 31.27442 37118 ft 487 kts 176°
2026-05-08 21:46 30.64560 31.28682 37099 ft 487 kts 176°
2026-05-08 21:46 30.57857 31.29921 37114 ft 488 kts 176°
2026-05-08 21:47 30.51195 31.31152 37112 ft 488 kts 176°
2026-05-08 21:47 30.44485 31.32388 37106 ft 489 kts 176°
2026-05-08 21:48 30.37762 31.33612 37085 ft 489 kts 176°
2026-05-08 21:48 30.31054 31.34832 37099 ft 488 kts 176°
2026-05-08 21:49 30.24347 31.36051 37100 ft 488 kts 176°
2026-05-08 21:49 30.17646 31.37269 37104 ft 487 kts 176°
2026-05-08 21:50 30.10994 31.38855 37093 ft 493 kts 165°
2026-05-08 21:50 30.04802 31.42365 37102 ft 501 kts 148°
2026-05-08 21:51 29.99191 31.47168 37099 ft 503 kts 146°
2026-05-08 21:51 29.93618 31.52052 37099 ft 503 kts 146°
2026-05-08 21:52 29.88024 31.56882 37092 ft 503 kts 146°
2026-05-08 21:52 29.82401 31.61677 37067 ft 502 kts 147°
2026-05-08 21:53 29.76785 31.66445 37095 ft 501 kts 147°
2026-05-08 21:53 29.71182 31.71197 37096 ft 500 kts 147°
2026-05-08 21:54 29.65583 31.75942 37099 ft 499 kts 147°
2026-05-08 21:54 29.59998 31.80669 37094 ft 498 kts 147°
2026-05-08 21:55 29.54411 31.85392 37095 ft 498 kts 147°
2026-05-08 21:56 29.46030 31.92463 37091 ft 499 kts 147°
2026-05-08 21:56 29.40435 31.97177 37089 ft 499 kts 147°
2026-05-08 21:57 29.34831 32.01890 37094 ft 499 kts 147°
2026-05-08 21:57 29.29228 32.06597 37091 ft 500 kts 147°
2026-05-08 21:58 29.23615 32.11305 37079 ft 500 kts 147°
2026-05-08 21:58 29.18001 32.16007 37081 ft 500 kts 147°
2026-05-08 21:59 29.12390 32.20701 37070 ft 500 kts 147°
2026-05-08 21:59 29.06777 32.25394 37076 ft 500 kts 146°
2026-05-08 22:00 29.01654 32.30811 37079 ft 504 kts 133°
2026-05-08 22:00 28.97414 32.37145 37074 ft 506 kts 127°
2026-05-08 22:01 28.93276 32.43642 37077 ft 506 kts 128°
2026-05-08 22:01 28.89111 32.50115 37062 ft 506 kts 128°
2026-05-08 22:02 28.84923 32.56568 37071 ft 506 kts 128°
2026-05-08 22:02 28.80729 32.63010 37056 ft 506 kts 128°
2026-05-08 22:03 28.76529 32.69450 37061 ft 506 kts 128°
2026-05-08 22:03 28.72322 32.75893 37053 ft 507 kts 128°
2026-05-08 22:04 28.68114 32.82329 37052 ft 507 kts 128°
2026-05-08 22:04 28.63897 32.88770 37041 ft 507 kts 128°
2026-05-08 22:05 28.59678 32.95204 37013 ft 507 kts 128°
2026-05-08 22:05 28.55451 33.01640 37020 ft 507 kts 128°
2026-05-08 22:06 28.51222 33.08069 37009 ft 508 kts 128°
2026-05-08 22:06 28.46990 33.14494 37008 ft 508 kts 128°
2026-05-08 22:07 28.42751 33.20918 36995 ft 508 kts 128°
2026-05-08 22:07 28.38515 33.27330 36962 ft 507 kts 128°
2026-05-08 22:08 28.34280 33.33730 36967 ft 506 kts 128°
2026-05-08 22:08 28.30071 33.40081 36950 ft 506 kts 128°
2026-05-08 22:09 28.25839 33.46457 36947 ft 505 kts 128°
2026-05-08 22:09 28.21611 33.52818 36942 ft 505 kts 128°
2026-05-08 22:10 28.17376 33.59179 36936 ft 505 kts 128°
2026-05-08 22:10 28.13179 33.65474 36941 ft 505 kts 128°
2026-05-08 22:11 28.08898 33.71885 36959 ft 505 kts 128°
2026-05-08 22:11 28.04665 33.78216 36954 ft 506 kts 128°
2026-05-08 22:12 28.00424 33.84550 36953 ft 506 kts 128°
2026-05-08 22:12 27.96168 33.90895 36941 ft 506 kts 128°
2026-05-08 22:13 27.91918 33.97224 36950 ft 506 kts 128°
2026-05-08 22:13 27.87658 34.03557 36941 ft 506 kts 128°
2026-05-08 22:14 27.83400 34.09878 36937 ft 506 kts 128°
2026-05-08 22:14 27.79137 34.16198 36940 ft 505 kts 128°
2026-05-08 22:15 27.74876 34.22506 36930 ft 505 kts 128°
2026-05-08 22:15 27.70610 34.28811 36932 ft 505 kts 128°
2026-05-08 22:16 27.66346 34.35104 36927 ft 505 kts 128°
2026-05-08 22:16 27.62073 34.41402 36924 ft 505 kts 128°
2026-05-08 22:17 27.57798 34.47693 36919 ft 505 kts 128°
2026-05-08 22:17 27.53520 34.53979 36914 ft 505 kts 127°
2026-05-08 22:18 27.49251 34.60244 36915 ft 504 kts 127°
2026-05-08 22:18 27.44985 34.66495 36913 ft 503 kts 127°
2026-05-08 22:19 27.40717 34.72740 36913 ft 503 kts 127°
2026-05-08 22:19 27.36453 34.78971 36914 ft 502 kts 127°
2026-05-08 22:20 27.32907 34.84146 36905 ft 502 kts 128°
2026-05-08 22:20 27.28640 34.90364 36906 ft 502 kts 128°
2026-05-08 22:21 27.24368 34.96582 36908 ft 503 kts 128°
2026-05-08 22:21 27.20089 35.02800 36905 ft 503 kts 128°
2026-05-08 22:22 27.15807 35.09014 36905 ft 503 kts 128°
2026-05-08 22:22 27.11519 35.15229 36884 ft 503 kts 128°
2026-05-08 22:23 27.07229 35.21436 36895 ft 503 kts 128°
2026-05-08 22:23 27.02933 35.27645 36890 ft 504 kts 128°
2026-05-08 22:24 26.98633 35.33850 36892 ft 504 kts 128°
2026-05-08 22:24 26.94355 35.40015 36886 ft 504 kts 128°
2026-05-08 22:25 26.90077 35.46172 36880 ft 504 kts 128°
2026-05-08 22:25 26.85742 35.52402 36884 ft 504 kts 128°
2026-05-08 22:26 26.81455 35.58553 36884 ft 504 kts 128°
2026-05-08 22:26 26.77136 35.64744 36886 ft 505 kts 128°
2026-05-08 22:27 26.72812 35.70932 36880 ft 505 kts 128°
2026-05-08 22:27 26.68485 35.77116 36873 ft 505 kts 128°
2026-05-08 22:28 26.64154 35.83297 36878 ft 505 kts 128°
2026-05-08 22:28 26.59820 35.89475 36875 ft 505 kts 128°
2026-05-08 22:29 26.55478 35.95658 36879 ft 506 kts 128°
2026-05-08 22:29 26.51137 36.01831 36878 ft 506 kts 128°
2026-05-08 22:30 26.46786 36.08007 36878 ft 506 kts 128°
2026-05-08 22:30 26.42433 36.14177 36884 ft 506 kts 128°
2026-05-08 22:31 26.38090 36.20324 36877 ft 506 kts 128°
2026-05-08 22:31 26.33733 36.26483 36882 ft 506 kts 128°
2026-05-08 22:32 26.29377 36.32632 36848 ft 506 kts 128°
2026-05-08 22:32 26.25014 36.38784 36854 ft 505 kts 128°
2026-05-08 22:33 26.20662 36.44914 36855 ft 504 kts 128°
2026-05-08 22:33 26.16586 36.51249 36862 ft 504 kts 119°
2026-05-08 22:34 26.13240 36.58101 36885 ft 504 kts 117°
2026-05-08 22:34 26.09925 36.64978 36880 ft 505 kts 118°
2026-05-08 22:35 26.06570 36.71836 36881 ft 505 kts 118°
2026-05-08 22:35 26.03190 36.78685 36883 ft 505 kts 118°
2026-05-08 22:36 25.99801 36.85533 36900 ft 506 kts 118°
2026-05-08 22:36 25.96414 36.92375 36893 ft 506 kts 118°
2026-05-08 22:37 25.93016 36.99230 36904 ft 506 kts 118°
2026-05-08 22:37 25.89617 37.06079 36898 ft 506 kts 118°
2026-05-08 22:38 25.86216 37.12920 36898 ft 506 kts 118°
2026-05-08 22:38 25.82811 37.19761 36897 ft 506 kts 118°
2026-05-08 22:39 25.79426 37.26550 36908 ft 506 kts 119°
2026-05-08 22:39 25.76064 37.33299 36791 ft 491 kts 118°
2026-05-08 22:39 25.74424 37.36591 36556 ft 485 kts 118°
2026-05-08 22:40 25.72801 37.39848 36212 ft 482 kts 118°
2026-05-08 22:40 25.71181 37.43097 35838 ft 480 kts 118°
2026-05-08 22:40 25.69566 37.46332 35458 ft 478 kts 118°
2026-05-08 22:40 25.67960 37.49546 35079 ft 477 kts 118°
2026-05-08 22:41 25.66354 37.52759 34696 ft 475 kts 118°
2026-05-08 22:41 25.64755 37.55955 34355 ft 473 kts 118°
2026-05-08 22:41 25.63162 37.59138 34058 ft 470 kts 117°
2026-05-08 22:41 25.61578 37.62298 33710 ft 468 kts 117°
2026-05-08 22:42 25.60003 37.65440 33351 ft 465 kts 117°
2026-05-08 22:42 25.58437 37.68562 33005 ft 462 kts 117°
2026-05-08 22:42 25.56878 37.71668 32675 ft 460 kts 117°
2026-05-08 22:42 25.55328 37.74753 32331 ft 458 kts 117°
2026-05-08 22:43 25.53784 37.77825 31989 ft 456 kts 117°
2026-05-08 22:43 25.52245 37.80884 31660 ft 453 kts 117°
2026-05-08 22:43 25.50716 37.83922 31355 ft 450 kts 117°
2026-05-08 22:43 25.49194 37.86943 31040 ft 448 kts 117°
2026-05-08 22:44 25.47681 37.89944 30738 ft 446 kts 117°
2026-05-08 22:44 25.46174 37.92933 30441 ft 443 kts 117°
2026-05-08 22:44 25.44674 37.95905 30145 ft 441 kts 117°
2026-05-08 22:44 25.43179 37.98866 29751 ft 441 kts 117°
2026-05-08 22:45 25.41686 38.01823 29395 ft 439 kts 117°
2026-05-08 22:45 25.40200 38.04760 29056 ft 437 kts 117°
2026-05-08 22:45 25.38732 38.07662 28755 ft 434 kts 117°
2026-05-08 22:45 25.37262 38.10565 28438 ft 431 kts 117°
2026-05-08 22:46 25.35805 38.13440 28072 ft 427 kts 117°
2026-05-08 22:46 25.34358 38.16295 27654 ft 424 kts 117°
2026-05-08 22:46 25.32921 38.19128 27253 ft 421 kts 117°
2026-05-08 22:46 25.31494 38.21940 26859 ft 418 kts 117°
2026-05-08 22:47 25.30077 38.24732 26462 ft 415 kts 117°
2026-05-08 22:47 25.28667 38.27507 26059 ft 413 kts 117°
2026-05-08 22:47 25.27264 38.30267 25668 ft 411 kts 118°
2026-05-08 22:47 25.25867 38.33014 25270 ft 409 kts 118°
2026-05-08 22:48 25.24475 38.35749 24883 ft 408 kts 118°
2026-05-08 22:48 25.23085 38.38478 24484 ft 407 kts 118°
2026-05-08 22:48 25.21702 38.41193 24084 ft 406 kts 118°
2026-05-08 22:48 25.20318 38.43908 23682 ft 405 kts 118°
2026-05-08 22:49 25.18938 38.46614 23256 ft 404 kts 118°
2026-05-08 22:49 25.16192 38.51990 22398 ft 400 kts 118°
2026-05-08 22:49 25.14831 38.54653 22003 ft 398 kts 119°
2026-05-08 22:50 25.13472 38.57312 21595 ft 396 kts 119°
2026-05-08 22:50 25.12121 38.59954 21207 ft 394 kts 119°
2026-05-08 22:50 25.10780 38.62577 20809 ft 392 kts 119°
2026-05-08 22:50 25.09444 38.65187 20409 ft 390 kts 119°
2026-05-08 22:51 25.08116 38.67781 20024 ft 388 kts 119°
2026-05-08 22:51 25.06794 38.70363 19630 ft 386 kts 119°
2026-05-08 22:51 25.05491 38.72905 19236 ft 384 kts 119°
2026-05-08 22:51 25.04178 38.75466 18848 ft 383 kts 119°
2026-05-08 22:52 25.02867 38.78021 18434 ft 382 kts 119°
2026-05-08 22:52 25.01560 38.80568 17994 ft 381 kts 120°
2026-05-08 22:52 25.00256 38.83110 17571 ft 379 kts 120°
2026-05-08 22:52 24.98962 38.85629 17162 ft 376 kts 120°
2026-05-08 22:53 24.97676 38.88127 16752 ft 373 kts 120°
2026-05-08 22:53 24.96399 38.90607 16345 ft 370 kts 121°
2026-05-08 22:53 24.94985 38.92950 15946 ft 366 kts 129°
2026-05-08 22:53 24.93395 38.95103 15559 ft 362 kts 132°
2026-05-08 22:54 24.91759 38.97204 15181 ft 360 kts 132°
2026-05-08 22:54 24.90187 38.99228 14803 ft 357 kts 132°
2026-05-08 22:54 24.88591 39.01314 14412 ft 355 kts 132°
2026-05-08 22:54 24.87013 39.03405 14005 ft 354 kts 131°
2026-05-08 22:55 24.85454 39.05490 13591 ft 352 kts 131°
2026-05-08 22:55 24.83924 39.07551 13178 ft 350 kts 131°
2026-05-08 22:55 24.82389 39.09615 12775 ft 347 kts 132°
2026-05-08 22:55 24.80863 39.11663 12413 ft 343 kts 132°
2026-05-08 22:56 24.79376 39.13662 12259 ft 333 kts 132°
2026-05-08 22:56 24.77935 39.15603 12110 ft 322 kts 133°
2026-05-08 22:56 24.76643 39.17554 11940 ft 311 kts 119°
2026-05-08 22:56 24.76059 39.19814 11837 ft 307 kts 98°
2026-05-08 22:57 24.76111 39.22127 11671 ft 299 kts 89°
2026-05-08 22:57 24.76323 39.24359 11402 ft 287 kts 88°
2026-05-08 22:57 24.76552 39.26533 11201 ft 286 kts 88°
2026-05-08 22:57 24.76773 39.28708 11007 ft 286 kts 88°
2026-05-08 22:58 24.76989 39.30882 10804 ft 286 kts 88°
2026-05-08 22:58 24.77201 39.33060 10598 ft 286 kts 88°
2026-05-08 22:58 24.77406 39.35229 10396 ft 285 kts 88°
2026-05-08 22:58 24.77606 39.37389 10199 ft 282 kts 88°
2026-05-08 22:59 24.77806 39.39532 10009 ft 281 kts 88°
2026-05-08 22:59 24.77939 39.40948 9873 ft 281 kts 88°
2026-05-08 22:59 24.78201 39.43794 9584 ft 279 kts 88°
2026-05-08 22:59 24.78393 39.45914 9388 ft 278 kts 88°
2026-05-08 23:00 24.78584 39.48024 9187 ft 276 kts 88°
2026-05-08 23:00 24.78781 39.50114 9009 ft 272 kts 84°
2026-05-08 23:00 24.79419 39.52008 8783 ft 269 kts 54°
2026-05-08 23:00 24.80812 39.53315 8606 ft 263 kts 25°
2026-05-08 23:01 24.82543 39.53818 8477 ft 256 kts
2026-05-08 23:01 24.84294 39.53621 8287 ft 254 kts 346°
2026-05-08 23:01 24.86052 39.53214 8126 ft 255 kts 353°
2026-05-08 23:01 24.87765 39.53513 7926 ft 256 kts 29°
2026-05-08 23:02 24.89050 39.54807 7790 ft 251 kts 63°
2026-05-08 23:02 24.89647 39.56591 7673 ft 250 kts 80°
2026-05-08 23:02 24.90024 39.58472 7499 ft 252 kts 79°
2026-05-08 23:02 24.90319 39.60353 7293 ft 245 kts 93°
2026-05-08 23:03 24.89893 39.62099 7127 ft 235 kts 125°
2026-05-08 23:03 24.88762 39.63358 7042 ft 234 kts 147°
2026-05-08 23:03 24.87263 39.64064 6829 ft 237 kts 169°
2026-05-08 23:03 24.85647 39.64375 6666 ft 234 kts 171°
2026-05-08 23:04 24.84072 39.64693 6498 ft 226 kts 170°
2026-05-08 23:04 24.83061 39.64904 6387 ft 221 kts 169°
2026-05-08 23:04 24.81089 39.65322 6166 ft 210 kts 169°
2026-05-08 23:04 24.79680 39.65623 5983 ft 203 kts 169°
2026-05-08 23:05 24.78307 39.65915 5818 ft 199 kts 169°
2026-05-08 23:05 24.76954 39.66206 5663 ft 198 kts 169°
2026-05-08 23:05 24.75597 39.66497 5514 ft 199 kts 169°
2026-05-08 23:05 24.74238 39.66787 5302 ft 200 kts 169°
2026-05-08 23:06 24.72871 39.67079 5068 ft 200 kts 169°
2026-05-08 23:06 24.71968 39.67272 4911 ft 199 kts 169°
2026-05-08 23:06 24.70616 39.67561 4660 ft 197 kts 169°
2026-05-08 23:06 24.69285 39.67846 4434 ft 190 kts 169°
2026-05-08 23:07 24.68009 39.68118 4164 ft 182 kts 168°
2026-05-08 23:07 24.66838 39.68369 3957 ft 164 kts 168°
2026-05-08 23:07 24.65769 39.68597 3769 ft 152 kts 168°
2026-05-08 23:07 24.64726 39.68820 3578 ft 156 kts 168°
2026-05-08 23:08 24.63665 39.69047 3383 ft 154 kts 168°
2026-05-08 23:08 24.62621 39.69269 3182 ft 152 kts 168°
2026-05-08 23:08 24.61571 39.69493 2969 ft 156 kts 168°
2026-05-08 23:08 24.60507 39.69721 2752 ft 155 kts 167°
2026-05-08 23:09 24.59446 39.69953 2526 ft 157 kts 168°
2026-05-08 23:09 24.58382 39.70171 2340 ft 154 kts 168°
2026-05-08 23:09 24.57327 39.70399 2150 ft 155 kts 168°
2026-05-08 23:09 24.56354 39.70610 2118 ft 122 kts 169°
2026-05-08 23:10 24.55710 39.70746 2102 ft 70 kts 169°
2026-05-08 23:10 24.55403 39.70823 2097 ft 31 kts 157°
2026-05-08 23:10 24.55263 39.70920 2095 ft 16 kts 141°
2026-05-08 23:10 24.55214 39.71022 2096 ft 16 kts 88°
2026-05-08 23:11 24.55238 39.71144 2097 ft 16 kts 80°
2026-05-08 23:11 24.55239 39.71268 2098 ft 16 kts 83°
2026-05-08 23:11 24.55249 39.71314 2098 ft 3 kts 76°
2026-05-08 23:11 24.55252 39.71330 2098 ft 0 kts 76°